MSR670 OEJN-HECA

Flight info

Callsign MSR670
Flight time N/A
Altitude 38000
Route MIGDA L677 CVO
Aircraft A21N/M-SDE3FGHIRWY/LB1

Departure

Time N/A
Airport King Abdulaziz International Airport (OEJN)

Arrival

Time 2026-05-07 13:24
Airport Cairo International Airport (HECA)
Time Latitude Longitude Altitude Speed Heading
2026-05-07 12:34 28.14735 34.20734 37989 ft 436 kts 305°
2026-05-07 12:34 28.16655 34.18078 38008 ft 435 kts 306°
2026-05-07 12:34 28.20491 34.12759 38039 ft 435 kts 305°
2026-05-07 12:35 28.24292 34.07471 38095 ft 435 kts 305°
2026-05-07 12:35 28.28097 34.02168 38145 ft 434 kts 306°
2026-05-07 12:36 28.31911 33.96851 38160 ft 434 kts 306°
2026-05-07 12:36 28.35700 33.91560 38136 ft 432 kts 306°
2026-05-07 12:37 28.39514 33.86230 38110 ft 432 kts 306°
2026-05-07 12:37 28.43294 33.80935 38084 ft 432 kts 306°
2026-05-07 12:38 28.47056 33.75658 38071 ft 431 kts 306°
2026-05-07 12:38 28.50829 33.70356 38066 ft 431 kts 306°
2026-05-07 12:39 28.54599 33.65064 38058 ft 431 kts 307°
2026-05-07 12:39 28.58386 33.59757 38046 ft 430 kts 307°
2026-05-07 12:40 28.62152 33.54468 38048 ft 430 kts 307°
2026-05-07 12:40 28.65890 33.49216 38040 ft 429 kts 307°
2026-05-07 12:41 28.69658 33.43913 38038 ft 429 kts 307°
2026-05-07 12:41 28.73397 33.38638 38033 ft 429 kts 307°
2026-05-07 12:42 28.77137 33.33344 38029 ft 429 kts 307°
2026-05-07 12:42 28.80853 33.28054 37813 ft 429 kts 307°
2026-05-07 12:43 28.82705 33.25418 37568 ft 426 kts 307°
2026-05-07 12:43 28.84552 33.22793 37325 ft 423 kts 307°
2026-05-07 12:43 28.86381 33.20194 37067 ft 420 kts 307°
2026-05-07 12:43 28.88197 33.17611 36790 ft 418 kts 307°
2026-05-07 12:44 28.90025 33.15011 36515 ft 418 kts 308°
2026-05-07 12:44 28.91829 33.12445 36244 ft 418 kts 308°
2026-05-07 12:44 28.93636 33.09876 35982 ft 418 kts 308°
2026-05-07 12:44 28.95451 33.07292 35743 ft 418 kts 308°
2026-05-07 12:45 28.97283 33.04682 35522 ft 418 kts 308°
2026-05-07 12:45 28.99084 33.02114 35208 ft 419 kts 308°
2026-05-07 12:45 29.00899 32.99524 34759 ft 420 kts 308°
2026-05-07 12:45 29.02726 32.96916 34196 ft 421 kts 308°
2026-05-07 12:46 29.04564 32.94291 33489 ft 423 kts 308°
2026-05-07 12:46 29.06378 32.91700 32784 ft 424 kts 308°
2026-05-07 12:46 29.08215 32.89074 32081 ft 424 kts 308°
2026-05-07 12:46 29.10045 32.86457 31385 ft 425 kts 308°
2026-05-07 12:47 29.11899 32.83816 30664 ft 425 kts 309°
2026-05-07 12:47 29.13738 32.81201 30008 ft 424 kts 308°
2026-05-07 12:47 29.15569 32.78590 29575 ft 418 kts 308°
2026-05-07 12:47 29.17364 32.76021 29124 ft 413 kts 308°
2026-05-07 12:48 29.19152 32.73455 28660 ft 408 kts 308°
2026-05-07 12:48 29.20895 32.70950 28204 ft 404 kts 308°
2026-05-07 12:48 29.22634 32.68445 27750 ft 400 kts 308°
2026-05-07 12:48 29.24362 32.65953 27293 ft 396 kts 308°
2026-05-07 12:49 29.26076 32.63485 26837 ft 393 kts 309°
2026-05-07 12:49 29.27749 32.61074 26392 ft 389 kts 309°
2026-05-07 12:49 29.29428 32.58653 25939 ft 386 kts 309°
2026-05-07 12:49 29.31083 32.56256 25494 ft 383 kts 308°
2026-05-07 12:50 29.32724 32.53873 25043 ft 380 kts 308°
2026-05-07 12:50 29.34344 32.51517 24598 ft 378 kts 308°
2026-05-07 12:50 29.35978 32.49138 24143 ft 375 kts 309°
2026-05-07 12:50 29.37564 32.46826 23708 ft 373 kts 309°
2026-05-07 12:51 29.39170 32.44482 23267 ft 370 kts 309°
2026-05-07 12:51 29.40750 32.42177 22839 ft 368 kts 309°
2026-05-07 12:51 29.42326 32.39875 22404 ft 366 kts 309°
2026-05-07 12:51 29.43879 32.37607 21991 ft 363 kts 309°
2026-05-07 12:52 29.45437 32.35328 21569 ft 361 kts 309°
2026-05-07 12:52 29.46989 32.33051 21144 ft 359 kts 308°
2026-05-07 12:52 29.48511 32.30809 20727 ft 357 kts 308°
2026-05-07 12:52 29.50035 32.28565 20302 ft 355 kts 308°
2026-05-07 12:53 29.51549 32.26340 19870 ft 354 kts 308°
2026-05-07 12:53 29.53039 32.24152 19452 ft 352 kts 308°
2026-05-07 12:53 29.54547 32.21936 19020 ft 350 kts 308°
2026-05-07 12:53 29.56040 32.19742 18557 ft 349 kts 308°
2026-05-07 12:54 29.57547 32.17528 18085 ft 349 kts 308°
2026-05-07 12:54 29.59021 32.15361 17644 ft 347 kts 308°
2026-05-07 12:54 29.60519 32.13160 17212 ft 345 kts 308°
2026-05-07 12:54 29.61978 32.11015 16791 ft 343 kts 308°
2026-05-07 12:55 29.63436 32.08867 16374 ft 341 kts 308°
2026-05-07 12:55 29.64894 32.06721 15952 ft 339 kts 308°
2026-05-07 12:55 29.66342 32.04588 15526 ft 337 kts 308°
2026-05-07 12:55 29.67776 32.02472 15108 ft 335 kts 308°
2026-05-07 12:56 29.69202 32.00368 14689 ft 333 kts 308°
2026-05-07 12:56 29.70613 31.98286 14273 ft 331 kts 308°
2026-05-07 12:56 29.72021 31.96204 13858 ft 329 kts 308°
2026-05-07 12:56 29.73375 31.94117 13449 ft 332 kts 302°
2026-05-07 12:57 29.74189 31.91624 13024 ft 338 kts 282°
2026-05-07 12:57 29.74435 31.88937 12627 ft 338 kts 276°
2026-05-07 12:57 29.74561 31.86233 12238 ft 337 kts 275°
2026-05-07 12:57 29.74665 31.83550 12079 ft 336 kts 275°
2026-05-07 12:58 29.74765 31.80857 12077 ft 337 kts 275°
2026-05-07 12:58 29.74865 31.78176 12068 ft 338 kts 275°
2026-05-07 12:58 29.74965 31.75457 12072 ft 337 kts 275°
2026-05-07 12:58 29.75065 31.72787 11943 ft 333 kts 275°
2026-05-07 12:59 29.75164 31.70147 11455 ft 332 kts 275°
2026-05-07 12:59 29.75264 31.67509 10910 ft 332 kts 275°
2026-05-07 12:59 29.75361 31.64875 10404 ft 331 kts 275°
2026-05-07 12:59 29.75455 31.62225 9900 ft 329 kts 275°
2026-05-07 13:00 29.75546 31.59611 9442 ft 326 kts 275°
2026-05-07 13:00 29.75628 31.57075 9246 ft 314 kts 275°
2026-05-07 13:00 29.75700 31.54613 9046 ft 304 kts 275°
2026-05-07 13:00 29.75767 31.52212 8850 ft 293 kts 275°
2026-05-07 13:01 29.75827 31.49897 8618 ft 286 kts 275°
2026-05-07 13:01 29.75881 31.47638 8250 ft 283 kts 277°
2026-05-07 13:01 29.76328 31.45484 7823 ft 276 kts 301°
2026-05-07 13:01 29.77427 31.43694 7454 ft 270 kts 313°
2026-05-07 13:02 29.78647 31.42089 7039 ft 270 kts 315°
2026-05-07 13:02 29.79908 31.40481 6747 ft 265 kts 315°
2026-05-07 13:02 29.81114 31.38938 6573 ft 255 kts 315°
2026-05-07 13:02 29.82278 31.37447 6404 ft 246 kts 315°
2026-05-07 13:03 29.83404 31.35996 6237 ft 238 kts 315°
2026-05-07 13:03 29.84488 31.34590 6046 ft 231 kts 315°
2026-05-07 13:03 29.85544 31.33200 5701 ft 233 kts 314°
2026-05-07 13:03 29.86624 31.31766 5162 ft 242 kts 314°
2026-05-07 13:04 29.87717 31.30309 4794 ft 242 kts 314°
2026-05-07 13:04 29.88824 31.28822 4477 ft 241 kts 314°
2026-05-07 13:04 29.89892 31.27373 4161 ft 239 kts 314°
2026-05-07 13:04 29.90963 31.25917 3834 ft 239 kts 315°
2026-05-07 13:05 29.92236 31.24727 3525 ft 229 kts 341°
2026-05-07 13:05 29.93730 31.24492 3394 ft 213 kts
2026-05-07 13:05 29.95174 31.24780 3244 ft 204 kts 13°
2026-05-07 13:05 29.96522 31.25144 3083 ft 197 kts 14°
2026-05-07 13:06 29.97857 31.25523 2830 ft 194 kts 14°
2026-05-07 13:06 29.99129 31.26002 2557 ft 191 kts 30°
2026-05-07 13:06 30.00169 31.26924 2491 ft 190 kts 42°
2026-05-07 13:06 30.01090 31.28016 2487 ft 192 kts 45°
2026-05-07 13:07 30.01979 31.29167 2592 ft 181 kts 46°
2026-05-07 13:07 30.02749 31.30195 2464 ft 164 kts 47°
2026-05-07 13:07 30.03472 31.31165 2236 ft 152 kts 47°
2026-05-07 13:07 30.04133 31.32050 2025 ft 139 kts 45°
2026-05-07 13:08 30.04749 31.32871 1839 ft 133 kts 46°
2026-05-07 13:08 30.05362 31.33686 1731 ft 135 kts 46°
2026-05-07 13:08 30.05967 31.34492 1545 ft 134 kts 46°
2026-05-07 13:08 30.06566 31.35290 1381 ft 133 kts 46°
2026-05-07 13:09 30.07172 31.36098 1204 ft 131 kts 45°
2026-05-07 13:09 30.07782 31.36916 1060 ft 131 kts 44°
2026-05-07 13:09 30.08366 31.37695 878 ft 129 kts 45°
2026-05-07 13:09 30.08972 31.38503 730 ft 133 kts 46°
2026-05-07 13:10 30.09580 31.39312 582 ft 134 kts 45°
2026-05-07 13:10 30.10193 31.40123 437 ft 130 kts 45°
2026-05-07 13:10 30.10856 31.41006 843 ft 152 kts 46°
2026-05-07 13:10 30.11514 31.41909 1701 ft 148 kts 46°
2026-05-07 13:11 30.12181 31.42810 2317 ft 153 kts 46°
2026-05-07 13:11 30.12969 31.43816 2471 ft 188 kts 45°
2026-05-07 13:11 30.13934 31.45023 2419 ft 213 kts 45°
2026-05-07 13:11 30.14953 31.46289 2447 ft 211 kts 45°
2026-05-07 13:12 30.15920 31.47555 2470 ft 210 kts 53°
2026-05-07 13:12 30.16376 31.49176 2484 ft 216 kts 86°
2026-05-07 13:12 30.15941 31.50861 2498 ft 227 kts 119°
2026-05-07 13:12 30.14728 31.52056 2498 ft 238 kts 153°
2026-05-07 13:13 30.13054 31.52341 2503 ft 245 kts 185°
2026-05-07 13:13 30.11358 31.51953 2668 ft 253 kts 193°
2026-05-07 13:13 30.09652 31.51423 3187 ft 254 kts 194°
2026-05-07 13:13 30.08263 31.50973 3430 ft 251 kts 195°
2026-05-07 13:14 30.06583 31.50423 3498 ft 250 kts 196°
2026-05-07 13:14 30.05019 31.49526 3502 ft 247 kts 218°
2026-05-07 13:14 30.03694 31.48237 3511 ft 248 kts 224°
2026-05-07 13:14 30.02419 31.46879 3514 ft 248 kts 225°
2026-05-07 13:15 30.01159 31.45518 3514 ft 249 kts 225°
2026-05-07 13:15 29.99879 31.44137 3513 ft 249 kts 225°
2026-05-07 13:15 29.98624 31.42784 3512 ft 248 kts 225°
2026-05-07 13:15 29.97344 31.41401 3513 ft 249 kts 225°
2026-05-07 13:16 29.96083 31.40036 3507 ft 249 kts 225°
2026-05-07 13:16 29.94835 31.38680 3504 ft 249 kts 225°
2026-05-07 13:16 29.93566 31.37303 3502 ft 249 kts 225°
2026-05-07 13:16 29.92309 31.35934 3498 ft 248 kts 225°
2026-05-07 13:17 29.91137 31.34465 3478 ft 245 kts 243°
2026-05-07 13:17 29.90676 31.32670 3302 ft 231 kts 276°
2026-05-07 13:17 29.91054 31.30966 3146 ft 214 kts 300°
2026-05-07 13:17 29.91713 31.29462 2928 ft 209 kts 304°
2026-05-07 13:18 29.92421 31.27990 2635 ft 208 kts 304°
2026-05-07 13:18 29.93203 31.26643 2485 ft 199 kts 324°
2026-05-07 13:18 29.94421 31.26010 2490 ft 190 kts
2026-05-07 13:18 29.95737 31.26141 2511 ft 190 kts 12°
2026-05-07 13:19 29.97039 31.26453 2502 ft 190 kts 14°
2026-05-07 13:19 29.98333 31.26799 2496 ft 191 kts 14°
2026-05-07 13:19 29.99627 31.27148 2492 ft 192 kts 16°
2026-05-07 13:19 30.00801 31.27835 2490 ft 190 kts 38°
2026-05-07 13:20 30.01753 31.28881 2555 ft 184 kts 45°
2026-05-07 13:20 30.02567 31.29931 2516 ft 166 kts 47°
2026-05-07 13:20 30.03289 31.30899 2310 ft 150 kts 47°
2026-05-07 13:20 30.03933 31.31770 2111 ft 136 kts 46°
2026-05-07 13:21 30.04532 31.32572 1926 ft 130 kts 45°
2026-05-07 13:21 30.05130 31.33369 1773 ft 133 kts 46°
2026-05-07 13:21 30.05734 31.34175 1609 ft 134 kts 46°
2026-05-07 13:21 30.06344 31.34990 1437 ft 134 kts 46°
2026-05-07 13:22 30.06959 31.35811 1275 ft 134 kts 45°
2026-05-07 13:22 30.07569 31.36630 1090 ft 134 kts 46°
2026-05-07 13:22 30.08175 31.37429 917 ft 133 kts 46°
2026-05-07 13:22 30.08790 31.38247 760 ft 135 kts 45°
2026-05-07 13:23 30.09407 31.39072 595 ft 136 kts 46°
2026-05-07 13:23 30.10013 31.39884 457 ft 131 kts 44°
2026-05-07 13:23 30.10596 31.40640 398 ft 113 kts 42°
2026-05-07 13:23 30.11044 31.41246 388 ft 75 kts 49°
2026-05-07 13:24 30.11286 31.41533 388 ft 30 kts 31°
2026-05-07 13:24 30.11454 31.41612 388 ft 22 kts 17°
2026-05-07 13:24 30.11561 31.41608 388 ft 11 kts 311°
2026-05-07 13:24 30.11556 31.41539 388 ft 9 kts 234°
2026-05-07 13:25 30.11507 31.41472 388 ft 12 kts 229°
2026-05-07 13:25 30.11461 31.41412 388 ft 0 kts 229°
2026-05-07 13:25 30.11456 31.41405 388 ft 2 kts 229°
2026-05-07 13:25 30.11436 31.41378 388 ft 6 kts 229°
2026-05-07 13:26 30.11401 31.41332 388 ft 9 kts 228°
2026-05-07 13:26 30.11353 31.41268 388 ft 12 kts 229°
2026-05-07 13:26 30.11294 31.41188 388 ft 13 kts 229°
2026-05-07 13:26 30.11226 31.41098 388 ft 15 kts 229°
2026-05-07 13:27 30.11152 31.40998 388 ft 17 kts 229°
2026-05-07 13:27 30.11076 31.40895 387 ft 13 kts 238°
2026-05-07 13:27 30.11078 31.40818 387 ft 10 kts 296°
2026-05-07 13:27 30.11072 31.40736 387 ft 11 kts 234°
2026-05-07 13:28 30.11014 31.40658 387 ft 13 kts 229°
2026-05-07 13:28 30.10947 31.40568 387 ft 15 kts 229°
2026-05-07 13:28 30.10872 31.40470 387 ft 15 kts 229°
2026-05-07 13:28 30.10833 31.40418 387 ft 9 kts 229°
2026-05-07 13:29 30.10782 31.40350 387 ft 12 kts 230°
2026-05-07 13:29 30.10720 31.40268 387 ft 14 kts 229°
2026-05-07 13:29 30.10650 31.40175 387 ft 15 kts 228°
2026-05-07 13:29 30.10574 31.40074 387 ft 17 kts 229°
2026-05-07 13:30 30.10500 31.39972 387 ft 12 kts 241°
2026-05-07 13:30 30.10499 31.39888 387 ft 10 kts 299°
2026-05-07 13:30 30.10567 31.39847 387 ft 12 kts 345°
2026-05-07 13:30 30.10653 31.39822 387 ft 13 kts 345°
2026-05-07 13:31 30.10735 31.39796 387 ft 5 kts 345°
2026-05-07 13:31 30.10764 31.39805 387 ft 5 kts 46°
2026-05-07 13:31 30.10779 31.39844 387 ft 4 kts 73°
2026-05-07 13:31 30.10787 31.39876 387 ft 2 kts 74°
2026-05-07 13:32 30.10788 31.39880 387 ft 0 kts 74°